Garrison, ND

7:34 PM CDT on June 25, 2017 (GMT -0500)
Garrison

Weather History for KN60 - January, 2013

Change the Weather History Date:

Monday, January 14, 2013

  Actual Average Record
Temperature  
Mean Temperature -6 °F -  
Max Temperature 6 °F - 35 °F (2015)
Min Temperature -18 °F - -9 °F (2017)
Degree Days  
Heating Degree Days 71    
Month to date heating degree days 730  
Cooling Degree Days 0    
Moisture  
Dew Point -5 °F    
Average Humidity 85    
Maximum Humidity 91    
Minimum Humidity 78    
Precipitation  
Precipitation 0.00 in - 0.16 in (2016)
Month to date precipitation 0.25  
Year to date precipitation 0.25  
Sea Level Pressure  
Sea Level Pressure 30.27 in    
Wind  
Wind Speed 3 mph (SW)    
Max Wind Speed 9 mph    
Max Gust Speed 12 mph    
T = Trace of Precipitation, MM = Missing Value Source: NWS Daily Summary

Daily Weather History Graph

Daily Weather History Graph

Search for Another Location

Airport or City:

Trip Planner

Search our weather history database for the weather conditions in past years. The results will help you decide how hot, cold, wet, or windy it might be!

Date:

Astronomy

Jan. 14, 2013 Rise Set
Actual Time 8:29 AM CST 5:20 PM CST
Civil Twilight 7:54 AM CST 5:55 PM CST
Nautical Twilight 7:16 AM CST 6:33 PM CST
Astronomical Twilight 6:39 AM CST 7:10 PM CST
Moon 9:47 AM CST (1/14) 9:27 PM CST (1/14)
Length of Visible Light 10h 00m
Length of Day
8h 50m
Waxing Crescent, 11% of the Moon is Illuminated
Jan 14
Waxing Crescent
Jan 18
First Quarter
Jan 26
Full
Feb 3
Last Quarter
Feb 10
New

Hourly Weather History & Observations

Time (CST) Temp. Windchill Dew Point Humidity Pressure Visibility Wind Dir Wind Speed Gust Speed Precip Events Conditions
12:52 AM -15.0 °F -27.4 °F -18.9 °F 82% 30.35 in - NNW 4.6 mph - N/A   Unknown
1:52 AM -16.1 °F - -18.9 °F 87% 30.34 in - Calm Calm - N/A   Unknown
2:52 AM -11.9 °F - -16.1 °F 82% 30.34 in - Calm Calm - N/A   Unknown
3:52 AM -11.0 °F - -14.1 °F 86% 30.33 in - Calm Calm - N/A   Unknown
4:52 AM -9.9 °F - -14.1 °F 82% 30.32 in - Calm Calm - N/A   Unknown
5:52 AM -9.9 °F - -15.0 °F 78% 30.32 in - Calm Calm - N/A   Unknown
6:52 AM -5.1 °F -13.6 °F -9.0 °F 83% 30.31 in - SW 3.5 mph - N/A   Unknown
7:52 AM -7.1 °F -19.9 °F -9.9 °F 87% 30.33 in - SW 5.8 mph - N/A   Unknown
8:52 AM -4.0 °F -14.6 °F -8.0 °F 83% 30.34 in - WSW 4.6 mph - N/A   Unknown
9:52 AM -0.9 °F -12.7 °F -5.1 °F 83% 30.33 in - West 5.8 mph - N/A   Unknown
10:52 AM -0.9 °F - -2.0 °F 95% 30.33 in - Calm Calm - N/A   Unknown
11:52 AM 1.9 °F -7.6 °F -2.9 °F 80% 30.31 in - West 4.6 mph - N/A   Unknown
12:52 PM 3.9 °F -8.2 °F -2.0 °F 76% 30.30 in - West 6.9 mph - N/A   Unknown
1:52 PM 3.9 °F -5.3 °F -0.9 °F 80% 30.28 in - WNW 4.6 mph - N/A   Unknown
2:52 PM 5.0 °F -2.1 °F -0.0 °F 80% 30.27 in - WSW 3.5 mph - N/A   Unknown
3:52 PM 5.0 °F -6.9 °F -0.0 °F 80% 30.25 in - South 6.9 mph - N/A   Unknown
4:52 PM 3.0 °F -8.0 °F -2.0 °F 80% 30.27 in - SSW 5.8 mph - N/A   Unknown
5:52 PM 3.9 °F -5.3 °F -0.9 °F 80% 30.24 in - SSE 4.6 mph - N/A   Unknown
6:52 PM 3.0 °F -6.4 °F -0.9 °F 84% 30.21 in - SSE 4.6 mph - N/A   Unknown
7:52 PM 5.0 °F -5.6 °F 1.0 °F 84% 30.19 in - South 5.8 mph - N/A   Unknown
8:52 PM 6.1 °F -5.6 °F 1.9 °F 83% 30.18 in - South 6.9 mph - N/A   Unknown
9:52 PM 8.1 °F -4.3 °F 1.9 °F 76% 30.14 in - South 8.1 mph - N/A   Unknown
10:52 PM 10.0 °F -1.9 °F 1.0 °F 67% 30.14 in - SW 8.1 mph - N/A   Unknown
11:52 PM 10.9 °F 1.4 °F 3.9 °F 73% 30.11 in - SW 5.8 mph - N/A   Unknown